"Pseudo-MPEC" for C3ZR902

Created 2020 Nov 23 2:07:15 UT using Find_Orb

Click here for an explanation of pseudo-MPECs

 
 Astrometry: 
     C3ZR902  C2020 11 21.19121802 09 26.15 +44 54 16.5    ~BL5M 20.04GVNEOCPG96
     C3ZR902  C2020 11 21.19630302 09 26.51 +44 53 53.6    ~BL5M 20.15GVNEOCPG96
     C3ZR902  C2020 11 21.20139102 09 26.86 +44 53 29.9    ~BL5M 20.62GVNEOCPG96
     C3ZR902  C2020 11 21.20648202 09 27.21 +44 53 07.3    ~BL5M 20.01GVNEOCPG96
     C3ZR902 mC2020 11 21.22684802 09 28.61 +44 51 34.5    ~BL5b 19.90GVNEOCPI52
     C3ZR902 mC2020 11 21.22761502 09 28.65 +44 51 30.8    ~BL5b 20.12GVNEOCPI52
     C3ZR902 mC2020 11 21.22838102 09 28.71 +44 51 27.3    ~BL5b       VNEOCPI52
     C3ZR902 mC2020 11 21.30217702 09 33.84 +44 45 46.4    ~BL7b 20.07GVNEOCPI52
     C3ZR902 mC2020 11 21.30294502 09 33.88 +44 45 43.0    ~BL7b 20.56GVNEOCPI52
     C3ZR902 mC2020 11 21.30371302 09 33.94 +44 45 39.3    ~BL7b 20.16GVNEOCPI52
     C3ZR902 1C2020 11 21.71078 02 10 15.79 +44 13 54.3    ~BLIb 20.7 VVNEOCP033
     C3ZR902 1C2020 11 21.71229 02 10 15.95 +44 13 46.3    ~BLIb 20.7 VVNEOCP033
     C3ZR902 1C2020 11 21.71379 02 10 16.09 +44 13 40.4    ~BLIb 20.3 VVNEOCP033
     C3ZR902 1C2020 11 21.71533 02 10 16.17 +44 13 33.2    ~BLIb 20.7 VVNEOCP033
     C3ZR902 KC2020 11 21O.OY`t4BsY9WynqAH3TA8RaIkEP^eEx;SMNm!=itv(+OvVpxiJt'587
     C3ZR902 KC2020 11 21V[*HZ4,EY*:21iZ3,Ia\Rm1(I([m,Utc6Y1pmqoMU09fSsS_w;AO587
     C3ZR902 KC2020 11 21b,1ehlXuG-87fI-YtW`)gTI@'#Y$rTS4`?y)1X$YeJQ?2dmi%v0Y587
     C3ZR902 KC2020 11 21EP`c?Nqrb17b:#t6_4`j-r.;3PKFv!aR[5RCGD_aGYZ7rHwbVJqVB49
     C3ZR902 bC2020 11 21e^-7_]lF51pXnGVSc#gwn_El!pM2[e?LJ?pk*P*/d,eqIC^F7xE]L01
     C3ZR902 KC2020 11 21T!S'3ilR;q.ZASrII[g/_2Cw25uWL)XZ0EIWQ(_yImqApt^)#Co@B49
     C3ZR902 bC2020 11 21'ip9pyqPd=Sunq#.JUBHK$c[`o6[wYQ6O*a%HXXC'Pi'Dv)I9ag9L01
     C3ZR902 KC2020 11 21CMb3.9l9)BDE!F#ZD^dDAstrometryM%K;.OTJGmCcZR#Lk`Hi+J204
     C3ZR902 bC2020 11 216c^4GHXO@8T[)iJyjqC.QueX@K01Pth4ujFJ1^YF9b6cZ[_hf4SDL01
     C3ZR902 bC2020 11 21.%redacted;KjUrdD,_h-dyECF^_6UJ]n9#\Fk%'co\\YZBsI)7OL01
     C3ZR902 bC2020 11 2143Ml5)=LQ0*4V,%\3B+IXe*!8-^Oc3=f!jXjMclickO=%_Gm-LR@L01
     C3ZR902 KC2020 11 21n]iMM(:4fCxT:U_PE2k?=85Jdgj3%4:';vvPs(phFKMvK9Vg+v+w204
     C3ZR902 KC2020 11 211USOXhC9)?i3[c;RQ;WXl(qHpVxUTddp=yO,BhjaX#vus(4`^hU)204
     C3ZR902 1C2020 11 2182[mfEX6bv5k)1ZMLlPHA#QG87+rY:!rL]el\C\y@qj#($P.pZW7246
     C3ZR902 1C2020 11 21^b8PywH28$*;p1wmGv3?gj!k@dUA-9)Fi\Ckn5oyTdI?bf8*_Yt;246
     C3ZR902 1C2020 11 21%o%AJF(=)N,eLQ3a!f;e5ZM,!fj`E!$3E7NT/V:N\lbDmN9XN`$O246
     C3ZR902 1C2020 11 21n5%27*qO7xWl-h`6JhereRxHyb2x6rexJT#7k-7=7N;Htj[8;gj=246
     C3ZR902 1C2020 11 21AqYSIoKL4#viZ34B$Q3-F['I;u^,8%WrXA]RV:)yNpgpus)(??cB246
     C3ZR902 1C2020 11 21EZ^tj2wG^/MFZ6`=5h3V_bOBjo;.7:hu4`?G7f+Fnel(!,EjtXG3246
     C3ZR902 1C2020 11 21uvV?EqM72ofF/,GFL-Ftr8txGdsZ1,/.N-4VDK15qH[CU(MttGsv246
     C3ZR902 1C2020 11 21fF0w,?_Imm7Ik7Okds9yqH[5v0cw)_c)oa548\GO_9@4o2Ri%,:N246
     C3ZR902 KC2020 11 21g)$wl!ZRec!SjkLNu1A;6'RYa^s59WIn8U3UV9.FtTrO^CD^3jmgK38
     C3ZR902 KC2020 11 21)@/wofFcX!w4WjvXPP@%h=$+*KxqTM=ov);9jPN[,SW6N6%E:_PxK38
     C3ZR902 KC2020 11 210NodGv're2f'(V1Vk7bEnSs_XSqoR(w!Fxx(oJm'6N/G_@8v(]E[K38
     C3ZR902 2C2020 11 22V^mu7?DiGAkGtCOiGvJ8J3_/Sw`65_qkw?@48X9:#`4F6#G2'97:Z84
     C3ZR902 2C2020 11 22Rn*:*?yUdvN_ef#C%=F@QFV.GBiaY*9ZRCt\bNk'$tfi`if@a2`8Z84
     C3ZR902 2C2020 11 22Xp!8jALNZ`X4tb.!A\g0B1wrcV0vLeV?0wE^1+?i?[d\Ce#%-g6\Z84
     C3ZR902 KC2020 11 22OX!@4tP1?hvJ-fDi*ZfI]lV$Htw@dYoe7q_Kk56e#for25eR3.\mW34
     C3ZR902 KC2020 11 22t,*@/hk,cUeXt)Y'OHq:])k6=yLdMXonO$6@dyuO2J+;]fj,7^2tW34
     C3ZR902 KC2020 11 22h#d_V7I)IQxvh`Ani-rt#U:maQ,MtPj3,[\j+!A]wcV8_$'lvVo+W34
     C3ZR902 mC2020 11 22.08403702 10 51.21 +43 44 59.9    ~BM2M 20.61GVNEOCPI52
     C3ZR902 mC2020 11 22.08480502 10 51.32 +43 44 56.8    ~BM2M 19.64GVNEOCPI52
     C3ZR902 mC2020 11 22.08557202 10 51.36 +43 44 53.2    ~BM2M 19.47GVNEOCPI52
     C3ZR902 KC2020 11 22p=m#@\wKLd1bF!m!w*y``kyrlnN;y2GU5g7fl=PX%wYLxVWQqqBpU55
     C3ZR902 KC2020 11 22jo^C2^vD+QZMhF?,wweN18AIXl@Tc0IYomk-C69uJf=p_IG75OH'U55
     C3ZR902 KC2020 11 22VCPh6JBS[l2*9X7\n*1rJOB0RDGgsIHOlx=\I`5^,HByZ35NGhvBU55
     C3ZR902 KC2020 11 22xNfyp`explanationioq-Q@GA$-C,#3u+QB+@MrGnLqTN5CC`*O+K63
     C3ZR902 KC2020 11 22p^89^xprt!#p,Ci3p6'B-[pvYn7=w=IGV;:nn0fB1D8=A'P7qX3XK63
     C3ZR902 KC2020 11 22m^/RFD)=GPsjhd.`1,y(NZ2?,DS87'CMLE=r4l:xF#_1/89]LK#2K63

Station data:
(033) Karl Schwarzschild Observatory, Tautenburg  (N50.980140 E11.711240)
   Germany. 1.3-m Schmidt.
(204) Schiaparelli Observatory  (N45.867933 E8.770800)  Italy.  Observer L.
   Buzzi. 0.60-m f/4.64 Newtonian + CCD.
(246) Klet Observatory-KLENOT  (N48.863293 E14.288100)  Czech Republic.
   1.06-m KLENOT telescope.
(587) Sormano  (N45.882949 E9.229180)  Italy.  Observers F. Manca, A. Testa.
   Measurer F. Manca. 0.5-m + CCD.
(B49) Paus Observatory, Sabadell  (N41.551035 E2.112500)  Spain.
(G96) Mt. Lemmon Survey  (N32.442754 W110.788720)  US/Arizona.  Observers T.
   A. Pruyne, B. M. Africano, E. J. Christensen, G. A. Farneth, D. C. Fuls,
   A. R. Gibbs, A. D. Grauer, H. Gröller, J. A. Johnson, R. A. Kowalski, S.
   M. Larson, G. J. Leonard, D. Rankin, R. L. Seaman, F. C. Shelly. 1.5-m
   reflector + 10K CCD.
(I52) Steward Observatory, Mt. Lemmon Station  (N32.442547 W110.788920)
   US/Arizona.  Observers T. A. Pruyne, B. M. Africano, E. J. Christensen, G.
   A. Farneth, D. C. Fuls, A. R. Gibbs, A. D. Grauer, H. Gröller, J. A.
   Johnson, R. A. Kowalski, S. M. Larson, G. J. Leonard, D. Rankin, R. L.
   Seaman, F. C. Shelly. 1.0-m reflector + CCD.
(K38) M57 Observatory, Saltrio  (N45.873785 E8.918240)  Italy.
(K63) G. Pascoli Observatory, Castelvecchio Pascoli  (N44.082410 E10.462000)
   Italy.
(L01) Višnjan Observatory, Tičan  (N45.290900 E13.749300)  Croatia.
   Observers K. Korlević, E. Pettarin. Measurer E. Pettarin. 1.0-m f/2.9
   reflector + CCD.
(U55) Golden Ears Observatory, Maple Ridge  (N49.253280 W122.585440)
   Canada/BritColumbia.
(W34) Squirrel Valley Observatory, Columbus  (N35.225393 W82.154700)
   US/North Carolina.  Observer R. L. Flynn. 0.35-m f/1.9 Schmidt-Cassegrain
   + CCD.
(Z84) Calar Alto-Schmidt  (N37.224049 W2.548210)  Spain.  Observer E. Schwab.
   Measurers E. Schwab, D. Koschny, M. Micheli. 0.8-m f/3 Schmidt + CCD.

Orbital elements:  C3ZR902
   Perihelion 2020 Dec 24.532460 +/- 0.13 TT = 12:46:44 (JD 2459208.032460)
Epoch 2020 Nov 22.0 TT = JDT 2459175.5   Earth MOID: 0.1471   AutoNEOCP
M 340.64907336 +/- 0.09             (J2000 ecliptic)
n   0.59481904 +/- 0.00202          Peri.  193.14255 +/- 0.14
a   1.40027329 +/- 0.00318          Node   252.96544 +/- 0.023
e   0.1940906 +/- 0.00145           Incl.   16.83374 +/- 0.07
P   1.66/605.21d           H 22.5   G  0.15   U  8.6  
q 1.12849329 +/- 0.000763    Q 1.67205328 +/- 0.00577
From 53 observations 2020 Nov. 21-22 (38.1 hr); mean residual 0".35
Residuals in arcseconds: 
201121 G96  .07-  .19+    201121 L01  .14+  .12+    201121 K38  .08+  .54-    
201121 G96  .03+  .32+    201121 B49  .36-  .70-    201121 K38  .17-  .31+    
201121 G96  .02+  .30-    201121 L01  .06-  .25+    201122 Z84  .02+  .12+    
201121 G96  .01+  .23+    201121 204  .01+  .18-    201122 Z84  .07+  .13+    
201121 I52  .03+  .26+    201121 L01  .09-  .13-    201122 Z84  .10+  .40+    
201121 I52  .10-  .07+    201121 L01  .34+  .21+    201122 W34  .34-  .59+    
201121 I52  .02-  .07+    201121 L01  .36+  .21-    201122 W34  .35-  .04+    
201121 I52  .02-  .06+    201121 204  .04-  .03-    201122 W34  .91-  .47+    
201121 I52  .18-  .24+    201121 204  .08+  .15-    201122 I52  .25-  .33-    
201121 I52  .12-  .13+    201121 246  .52+  .29+    201122 I52  .28+  .09+    
201121 033  .02-  .26+    201121 246  .52+  .12-    201122 I52  .05+  .01+    
201121 033  .31+  .88-    201121 246  .06+  .19+    201122 U55  .42-  .66+    
201121 033  .43+  .03+    201121 246  .90+  .10-    201122 U55  .16-  .15+    
201121 033  .12-  .18-    201121 246  .44-  .25-    201122 U55  .47-  .85+    
201121 587  .91+  .57-    201121 246  .61+  .14-    201122 K63  .02+  .25-    
201121 587  .38+  .38-    201121 246  .63-  .40-    201122 K63  .67+  .22-    
201121 587  .04-  .40-    201121 246  .10+  .21+    201122 K63  .10-  .03-    
201121 B49  .86-  .25-    201121 K38  .26+  .06+    

Ephemerides (geocentric):
Date (UTC) HH   RA              Dec         delta   r     elong  mag " sig PA
---- -- -- --  -------------   -----------  ------ ------ -----  --- ---- ---
2020 11 23 02  02 12 24.118   +42 25 03.66  .18507 1.1502 149.1 20.3 .081 101
2020 11 23 03  02 12 28.173   +42 21 40.07  .18498 1.1502 149.1 20.3 .080  99
2020 11 23 04  02 12 32.234   +42 18 16.20  .18489 1.1501 149.2 20.3 .078  98
2020 11 23 05  02 12 36.299   +42 14 52.06  .18479 1.1500 149.2 20.3 .076  96
2020 11 23 06  02 12 40.369   +42 11 27.63  .18470 1.1500 149.2 20.3 .074  94
2020 11 23 07  02 12 44.444   +42 08 02.92  .18461 1.1499 149.2 20.3 .072  91
2020 11 23 08  02 12 48.524   +42 04 37.94  .18452 1.1499 149.3 20.3 .070  89
2020 11 23 09  02 12 52.609   +42 01 12.68  .18442 1.1498 149.3 20.3 .068  86
2020 11 23 10  02 12 56.699   +41 57 47.14  .18433 1.1498 149.3 20.3 .067  83
2020 11 23 11  02 13 00.793   +41 54 21.33  .18424 1.1497 149.3 20.3 .065  79
2020 11 23 12  02 13 04.892   +41 50 55.24  .18415 1.1497 149.4 20.3 .063  75
2020 11 23 13  02 13 08.997   +41 47 28.87  .18406 1.1496 149.4 20.3 .062  71
2020 11 23 14  02 13 13.106   +41 44 02.23  .18397 1.1495 149.4 20.3 .061  67
2020 11 23 15  02 13 17.219   +41 40 35.31  .18388 1.1495 149.4 20.3 .060  62
2020 11 23 16  02 13 21.338   +41 37 08.12  .18379 1.1494 149.5 20.3 .060  57
2020 11 23 17  02 13 25.461   +41 33 40.66  .18370 1.1494 149.5 20.3 .060  51
2020 11 23 18  02 13 29.589   +41 30 12.92  .18361 1.1493 149.5 20.3 .061  46
2020 11 23 19  02 13 33.722   +41 26 44.91  .18352 1.1493 149.5 20.3 .062  41
